Tracking 29594 objects as of 20-Sep-2024
HD Live streaming from Space Station
objects crossing your sky now

STARLINK-5909

Track STARLINK-5909 now!
10-day predictions
STARLINK-5909 is classified as:


NORAD ID: 55938
Int'l Code: 2023-037AA
Perigee: 577.1 km
Apogee: 581.3 km
Inclination: 70.0 °
Period: 96.1 minutes
Semi major axis: 6950 km
RCS: Unknown
Launch date: March 17, 2023
Source: United States (US)
Launch site: AIR FORCE WESTERN TEST RANGE (AFWTR)
Your satellite tracking list
Your tracking list is empty




NASA's NSSDC Master Catalog

Two Line Element Set (TLE):
1 55938U 23037AA  24263.56662370 -.00000605  00000-0 -42962-4 0  9997
2 55938  69.9999 196.2328 0003049 268.9500  91.1310 14.98322145 83678
Source of the keplerian elements: AFSPC